Regional Weather Roundup
Issued by NWS Sioux Falls, SD

Home | Current Version | Previous Version | Text Only | Print | Product List | Glossary Off
Versions: 1 2 3 4 5 6 7 8 9 10 11 12 13 14 15 16 17 18 19 20 21 22 23 24 25 26 27 28 29 30 31 32 33 34 35 36 37 38 39 40 41 42 43 44 45 46 47 48 49 50

000
ASUS43 KFSD 251602
RWRFSD

WEATHER ROUNDUP FOR SE SOUTH DAKOTA/SW MINNESOTA/NW IOWA
NATIONAL WEATHER SERVICE SIOUX FALLS SD
1100 AM CDT MON MAY 25 2015

NOTE: "FAIR" INDICATES FEW OR NO CLOUDS BELOW 12,000 FEET WITH NO
SIGNIFICANT WEATHER AND OR OBSTRUCTIONS TO VISIBILITY.


SDZ038>040-050-052>070-251700-
SOUTHEAST SOUTH DAKOTA

CITY           SKY/WX    TMP DP  RH WIND       PRES   REMARKS
BROOKINGS      CLOUDY    61  57  88 W8        29.75S
CHAMBERLAIN    CLOUDY    58  56  91 CALM      29.78S
HURON          CLOUDY    61  57  87 N7        29.76R
MADISON        CLOUDY    63  63 100 W8        29.75F
MITCHELL       CLOUDY    62  57  83 W3        29.77S
SIOUX FALLS    CLOUDY    64  57  78 SW5       29.76S
WINNER         CLOUDY    63  56  78 NE9       29.77F
YANKTON        CLOUDY    61  57  88 NW3       29.77S
$$

MNZ071-072-080-081-089-090-097-098-251700-
SOUTHWEST MINNESOTA

CITY           SKY/WX    TMP DP  RH WIND       PRES   REMARKS
FAIRMONT       CLOUDY    64  55  72 SW13      29.75F
JACKSON        CLOUDY    63  59  88 W10       29.76S
LUVERNE        CLOUDY    63  57  82 W8        29.76F
MARSHALL       CLOUDY    64  54  68 W14       29.72R
MONTEVIDEO     CLOUDY    63  63 100 NW10      29.70R
REDWOOD FALLS  CLOUDY    62  57  83 W8        29.71R
TRACY          CLOUDY    64  58  81 W13       29.73S
WINDOM         CLOUDY    64  57  77 SW13G18   29.74F
WORTHINGTON    CLOUDY    61  55  82 SW13      29.76S
$$

IAZ001>003-012>014-020>022-031-032-NEZ013-014-SDZ071-251700-
NORTHWEST IOWA

CITY           SKY/WX    TMP DP  RH WIND       PRES   REMARKS
DENISON        MOSUNNY   66  66 100 SW7       29.79S
ESTHERVILLE    CLOUDY    64  60  87 SW17      29.76S
SIOUX CITY     CLOUDY    66  61  84 SW3       29.79R
SPENCER        CLOUDY    67  60  78 SW16      29.78R
$$

ABBREVIATIONS USED IN REMARKS
   TC - TEMPERATURE IN CELSIUS
  WCI - WIND CHILL INDEX
   HX - HEAT INDEX
  VSB - VISIBILITY




USA.gov is the U.S. government's official web portal to all federal, state and local government web resources and services.